AE5HO Weather Reports


Display with metric or nautical units.
time (UTC)temp
F
wind
direction
speed
MPH
gust
MPH
rain 1hr
in
rain 24hr
in
rain mn
in
humidity
%
barometer
mb
20260509134809 73 71 3.0 3.0 0.00 0.00 0.00 86 1010.9
20260509134306 73 270 0.0 2.0 0.00 0.00 0.00 87 1011.0
20260509133804 72 188 0.0 4.0 0.00 0.00 0.00 88 1010.8
20260509133300 72 31 3.0 3.0 0.00 0.00 0.00 89 1010.7
20260509132759 71 297 2.0 3.0 0.00 0.00 0.00 89 1010.7
20260509132257 71 160 1.0 4.0 0.00 0.00 0.00 90 1010.5
20260509131753 70 90 0.0 2.0 0.00 0.00 0.00 91 1010.4
20260509131250 70 15 2.0 5.0 0.00 0.00 0.00 91 1010.7
20260509130746 70 283 0.0 3.0 0.00 0.00 0.00 92 1010.7
20260509130242 69 66 0.0 3.0 0.00 0.00 0.00 93 1010.6
20260509125739 69 343 2.0 5.0 0.00 0.00 0.00 93 1010.7
20260509125236 69 334 0.0 3.0 0.00 0.00 0.00 93 1010.6
20260509124732 68 348 0.0 4.0 0.00 0.00 0.00 94 1010.7
20260509124229 68 160 1.0 4.0 0.00 0.00 0.00 94 1010.6
20260509123727 68 114 1.0 6.0 0.00 0.00 0.00 94 1010.7
20260509123224 68 331 0.0 3.0 0.00 0.00 0.00 94 1010.9
20260509122720 68 112 2.0 7.0 0.00 0.00 0.00 94 1010.3
20260509122217 68 337 0.0 3.0 0.00 0.00 0.00 95 1010.6
20260509121713 68 270 0.0 3.0 0.00 0.00 0.00 95 1010.6
20260509121211 68 121 0.0 3.0 0.00 0.00 0.00 95 1010.6
20260509120709 68 11 2.0 3.0 0.00 0.00 0.00 95 1010.5
20260509120207 68 0 0.0 4.0 0.00 0.00 0.00 95 1010.2
20260509115704 68 279 3.0 5.0 0.00 0.00 0.00 95 1010.4
20260509115201 67 270 0.0 4.0 0.00 0.00 0.00 94 1010.2
20260509114700 68 4 3.0 5.0 0.00 0.00 0.00 94 1010.5
20260509114158 68 279 0.0 3.0 0.00 0.00 0.00 93 1010.3
20260509113656 68 352 2.0 3.0 0.00 0.00 0.00 93 1010.1
20260509113153 68 331 3.0 3.0 0.00 0.00 0.00 92 1010.2
20260509112649 68 285 3.0 6.0 0.00 0.00 0.00 92 1009.7
20260509112147 68 345 4.0 5.0 0.00 0.00 0.00 92 1009.8
20260509111644 67 293 2.0 2.0 0.00 0.00 0.00 92 1009.7
20260509111140 67 334 0.0 0.0 0.00 0.00 0.00 93 1009.6
20260509110637 66 173 0.0 1.0 0.00 0.00 0.00 94 1009.4
20260509110134 66 90 0.0 0.0 0.00 0.00 0.00 93 1009.3
20260509105633 67 8 0.0 0.0 0.00 0.00 0.00 93 1009.0
20260509105130 67 82 0.0 0.0 0.00 0.00 0.00 93 1009.0
20260509104627 67 270 0.0 0.0 0.00 0.00 0.00 93 1009.0
20260509104124 67 270 0.0 0.0 0.00 0.00 0.00 93 1008.9
20260509103622 68 270 0.0 0.0 0.00 0.00 0.00 93 1008.7
20260509103119 68 270 0.0 0.0 0.00 0.00 0.00 93 1008.9
20260509102616 68 270 0.0 0.0 0.00 0.00 0.00 93 1008.9
20260509102114 68 270 0.0 0.0 0.00 0.00 0.00 92 1008.9
20260509101609 68 270 0.0 0.0 0.00 0.00 0.00 92 1008.6
20260509101106 69 270 0.0 0.0 0.00 0.00 0.00 92 1008.9
20260509100603 69 99 0.0 0.0 0.00 0.00 0.00 91 1008.6
20260509100101 69 99 0.0 0.0 0.00 0.00 0.00 91 1008.9
20260509095557 69 84 0.0 2.0 0.00 0.00 0.00 91 1008.9
20260509095055 69 254 0.0 0.0 0.00 0.00 0.00 90 1008.8
20260509094551 69 74 0.0 0.0 0.00 0.00 0.00 90 1008.3
20260509094048 70 74 0.0 0.0 0.00 0.00 0.00 90 1008.2
20260509093547 70 73 0.0 2.0 0.00 0.00 0.00 90 1008.2
20260509093044 70 270 0.0 0.0 0.00 0.00 0.00 90 1008.3
20260509092541 70 234 0.0 1.0 0.00 0.00 0.00 90 1008.4
20260509092040 70 106 0.0 0.0 0.00 0.00 0.00 90 1008.0
20260509091537 70 195 0.0 0.0 0.00 0.00 0.00 90 1008.0
20260509091034 70 71 0.0 1.0 0.00 0.00 0.00 91 1008.2
20260509090531 71 270 0.0 1.0 0.00 0.00 0.00 91 1008.5
20260509090029 71 83 1.0 1.0 0.00 0.00 0.00 91 1008.5
20260509085526 71 254 0.0 1.0 0.00 0.00 0.00 91 1008.5
20260509085022 71 276 0.0 4.0 0.00 0.00 0.00 91 1008.2
20260509084519 70 90 0.0 2.0 0.00 0.00 0.00 91 1006.9
20260509084016 70 90 0.0 3.0 0.00 0.00 0.00 91 1006.8
20260509083513 70 74 1.0 2.0 0.00 0.00 0.00 91 1006.5
20260509083010 71 196 0.0 5.0 0.00 0.00 0.00 91 1006.0
20260509082507 71 270 1.0 4.0 0.00 0.00 0.00 91 1006.3
20260509082004 71 77 2.0 3.0 0.00 0.00 0.00 91 1006.6
20260509081501 71 190 2.0 4.0 0.00 0.00 0.00 91 1006.9
20260509080958 71 217 3.0 3.0 0.00 0.00 0.00 91 1007.1
20260509080456 71 180 0.0 4.0 0.00 0.00 0.00 91 1007.7
20260509075954 71 231 2.0 6.0 0.00 0.00 0.00 91 1008.2
20260509075451 71 263 3.0 4.0 0.00 0.00 0.00 91 1008.4
20260509074949 71 243 0.0 2.0 0.00 0.00 0.00 91 1008.7
20260509074446 71 270 3.0 3.0 0.00 0.00 0.00 91 1009.0
20260509073942 70 258 2.0 3.0 0.00 0.00 0.00 91 1009.4
20260509073438 70 235 3.0 3.0 0.00 0.00 0.00 92 1009.5
20260509072935 70 264 0.0 2.0 0.00 0.00 0.00 92 1009.3
20260509072432 70 254 2.0 2.0 0.00 0.00 0.00 92 1009.6
20260509071929 70 209 0.0 3.0 0.00 0.00 0.00 92 1009.8
20260509071425 70 229 2.0 3.0 0.00 0.00 0.00 93 1010.3
20260509070923 69 239 2.0 4.0 0.00 0.00 0.00 93 1010.2
20260509070420 69 203 1.0 3.0 0.00 0.00 0.00 93 1010.3
20260509065915 69 166 1.0 3.0 0.00 0.00 0.00 93 1010.1
20260509065411 69 249 0.0 4.0 0.00 0.00 0.00 93 1010.7
20260509064908 69 264 1.0 3.0 0.00 0.00 0.00 93 1010.8
20260509064406 69 245 0.0 3.0 0.00 0.00 0.00 94 1010.7
20260509063903 69 180 0.0 2.0 0.00 0.00 0.00 94 1010.5
20260509063359 69 255 2.0 4.0 0.00 0.00 0.00 94 1010.8
20260509062856 69 101 2.0 2.0 0.00 0.00 0.00 94 1010.7
20260509062353 69 270 1.0 2.0 0.00 0.00 0.00 94 1010.8
20260509061850 69 270 0.0 2.0 0.00 0.00 0.00 93 1010.8
20260509061349 68 200 0.0 2.0 0.00 0.00 0.00 93 1010.6
20260509060845 68 270 0.0 2.0 0.00 0.00 0.00 93 1010.4
20260509060342 68 90 0.0 0.0 0.00 0.00 0.00 93 1011.0
20260509055837 68 270 0.0 0.0 0.00 0.00 0.00 93 1010.8
20260509055333 68 257 0.0 1.0 0.00 0.00 0.00 92 1010.5
20260509054830 69 188 0.0 0.0 0.00 0.00 0.00 92 1010.7
20260509054327 69 188 0.0 0.0 0.00 0.00 0.00 91 1010.7
20260509053825 69 188 0.0 1.0 0.00 0.00 0.00 91 1011.2
20260509053322 69 81 0.0 0.0 0.00 0.00 0.00 90 1011.8
20260509052821 70 90 0.0 2.0 0.00 0.00 0.00 90 1011.2
20260509052318 70 246 0.0 0.0 0.00 0.00 0.00 89 1011.2
20260509051815 70 180 0.0 0.0 0.00 0.00 0.00 89 1011.6
20260509051313 70 180 0.0 0.0 0.00 0.00 0.00 89 1011.7
20260509050809 70 270 0.0 2.0 0.00 0.00 0.00 89 1011.7
20260509050306 70 270 0.0 2.0 0.00 0.00 0.00 90 1011.7
20260509045803 69 90 2.0 2.0 0.00 0.96 0.96 90 1011.1
20260509045300 69 270 0.0 0.0 0.00 0.96 0.96 90 1010.6
20260509044757 70 270 0.0 0.0 0.00 0.96 0.96 89 1010.6
20260509044255 70 270 0.0 0.0 0.00 0.96 0.96 88 1010.7
20260509043751 71 261 0.0 0.0 0.00 0.96 0.96 87 1010.6
20260509043247 71 90 0.0 0.0 0.00 0.96 0.96 86 1010.5
20260509042743 71 90 0.0 1.0 0.00 0.96 0.96 86 1010.6
20260509042240 71 90 0.0 1.0 0.00 0.96 0.96 85 1010.6
20260509041737 72 90 0.0 1.0 0.00 0.96 0.96 85 1010.4
20260509041233 72 90 0.0 1.0 0.00 0.96 0.96 85 1010.1
20260509040732 72 276 0.0 1.0 0.00 0.96 0.96 85 1010.0
20260509040229 72 90 1.0 2.0 0.00 0.96 0.96 85 1010.0
20260509035725 72 270 0.0 2.0 0.00 0.96 0.96 85 1009.9
20260509035222 72 83 0.0 2.0 0.00 0.96 0.96 84 1009.7
20260509034719 72 180 0.0 1.0 0.00 0.96 0.96 84 1009.9
20260509034217 72 99 0.0 1.0 0.00 0.96 0.96 84 1010.0
20260509033714 72 188 0.0 0.0 0.00 0.96 0.96 84 1010.3
20260509033211 73 180 0.0 0.0 0.00 0.96 0.96 84 1010.7
20260509032708 73 195 0.0 2.0 0.00 0.96 0.96 84 1011.0
20260509032204 73 90 0.0 0.0 0.00 0.96 0.96 84 1010.7
20260509031702 73 191 2.0 2.0 0.00 0.96 0.96 84 1010.6
20260509031159 73 165 0.0 0.0 0.00 0.96 0.96 84 1010.6
20260509030658 73 165 0.0 0.0 0.00 0.96 0.96 84 1010.2
20260509030154 73 105 0.0 1.0 0.00 0.96 0.96 84 1010.2
20260509025650 73 90 0.0 2.0 0.00 0.96 0.96 84 1009.9
20260509025147 73 165 0.0 1.0 0.00 0.96 0.96 84 1009.7
20260509024642 73 180 0.0 1.0 0.00 0.96 0.96 84 1009.3
20260509024138 73 188 0.0 0.0 0.00 0.96 0.96 84 1009.6
20260509023636 73 234 0.0 2.0 0.00 0.96 0.96 83 1009.4
20260509023133 73 7 0.0 3.0 0.00 0.96 0.96 83 1009.1
20260509022629 73 199 0.0 3.0 0.00 0.96 0.96 83 1009.0
20260509022127 73 166 0.0 3.0 0.00 0.96 0.96 83 1008.8
20260509021624 72 282 0.0 4.0 0.00 0.96 0.96 83 1008.7
20260509021121 72 261 0.0 2.0 0.00 0.96 0.96 83 1008.8
20260509020619 72 19 0.0 3.0 0.00 0.96 0.96 83 1008.7
20260509020116 72 191 0.0 2.0 0.00 0.96 0.96 84 1008.5
20260509015615 72 195 0.0 1.0 0.00 0.96 0.96 83 1008.8
20260509015112 73 90 0.0 2.0 0.00 0.96 0.96 83 1008.6
20260509014608 73 192 0.0 1.0 0.00 0.96 0.96 83 1008.7
20260509014105 73 74 0.0 2.0 0.00 0.96 0.96 83 1008.6
20260509013602 73 254 0.0 1.0 0.00 0.96 0.96 83 1008.8
20260509013057 73 180 0.0 1.0 0.00 0.96 0.96 83 1008.9
20260509012554 73 249 0.0 1.0 0.00 0.96 0.96 82 1009.0
20260509012051 73 270 0.0 0.0 0.00 0.96 0.96 82 1009.2
20260509011549 73 270 0.0 0.0 0.00 0.96 0.96 82 1009.0
20260509011046 73 263 0.0 2.0 0.00 0.96 0.96 82 1008.9
20260509010544 73 246 0.0 1.0 0.00 0.96 0.96 82 1009.0
20260509010040 73 82 0.0 1.0 0.00 0.96 0.96 82 1008.6
20260509005538 73 192 0.0 2.0 0.00 0.96 0.96 81 1008.7
20260509005038 73 270 0.0 1.0 0.00 0.96 0.96 81 1008.7
20260509004535 74 261 0.0 1.0 0.00 0.96 0.96 80 1008.5
20260509004032 74 98 0.0 2.0 0.00 0.96 0.96 79 1008.5
20260509003531 74 261 0.0 3.0 0.00 0.96 0.96 79 1008.6
20260509003027 74 346 0.0 2.0 0.00 0.96 0.96 78 1008.3
20260509002525 75 266 3.0 4.0 0.00 0.96 0.96 78 1008.3
20260509002022 75 185 2.0 3.0 0.00 0.96 0.96 77 1008.4
20260509001520 75 270 0.0 2.0 0.00 0.96 0.96 76 1008.1
20260509001015 76 123 2.0 4.0 0.00 0.96 0.96 75 1008.2
20260509000514 76 246 2.0 3.0 0.00 0.96 0.96 75 1008.2
20260509000009 76 270 0.0 3.0 0.00 0.96 0.96 74 1008.4
20260508235508 77 270 0.0 4.0 0.00 0.96 0.96 74 1008.1
20260508235003 76 266 3.0 3.0 0.00 0.96 0.96 74 1008.3
20260508234501 75 270 2.0 3.0 0.00 0.96 0.96 75 1008.7
20260508233958 76 90 0.0 2.0 0.00 0.96 0.96 74 1008.9
20260508233457 76 195 2.0 3.0 0.00 0.96 0.96 74 1008.6
20260508232954 76 221 0.0 3.0 0.00 0.96 0.96 74 1008.5
20260508232451 76 243 0.0 3.0 0.00 0.96 0.96 73 1008.7
20260508231948 76 187 1.0 2.0 0.00 0.96 0.96 72 1008.8
20260508231445 77 98 0.0 3.0 0.00 0.96 0.96 71 1008.7
20260508230942 77 255 0.0 3.0 0.00 0.96 0.96 71 1008.8
20260508230439 77 105 1.0 2.0 0.00 0.96 0.96 70 1008.9
20260508225936 77 259 0.0 3.0 0.00 0.96 0.96 70 1008.8
20260508225432 78 90 1.0 2.0 0.00 0.96 0.96 69 1008.7
20260508224930 78 263 0.0 4.0 0.00 0.96 0.96 69 1009.0
20260508224427 78 99 0.0 3.0 0.00 0.96 0.96 69 1008.8
20260508223924 78 84 0.0 2.0 0.00 0.96 0.96 70 1008.9
20260508223422 77 203 0.0 3.0 0.00 0.96 0.96 70 1008.6
20260508222919 78 216 0.0 5.0 0.00 0.96 0.96 69 1008.9
20260508222416 78 189 2.0 5.0 0.00 0.96 0.96 68 1008.9
20260508221913 78 297 5.0 7.0 0.00 0.96 0.96 69 1009.0
20260508221408 77 77 2.0 3.0 0.00 0.96 0.96 69 1008.9
20260508220905 78 81 0.0 3.0 0.00 0.96 0.96 69 1008.9
20260508220402 78 255 3.0 5.0 0.00 0.96 0.96 69 1008.9
20260508215858 77 65 2.0 3.0 0.00 0.96 0.96 69 1008.9
20260508215355 78 249 0.0 3.0 0.00 0.96 0.96 70 1008.7
20260508214852 77 90 0.0 2.0 0.00 0.96 0.96 69 1008.8
20260508214350 77 12 2.0 3.0 0.00 0.96 0.96 70 1008.9
20260508213845 76 180 0.0 2.0 0.00 0.96 0.96 72 1008.7
20260508213343 76 215 0.0 4.0 0.00 0.96 0.96 70 1009.0
20260508212838 76 73 3.0 3.0 0.00 0.96 0.96 71 1008.8
20260508212335 76 190 2.0 6.0 0.00 0.96 0.96 70 1009.3
20260508211831 76 203 1.0 5.0 0.00 0.96 0.96 71 1009.4
20260508211327 76 90 0.0 3.0 0.00 0.96 0.96 70 1009.3
20260508210825 77 255 3.0 3.0 0.00 0.96 0.96 71 1009.4
20260508210321 77 319 0.0 4.0 0.00 0.96 0.96 69 1009.1
20260508205818 77 96 0.0 4.0 0.00 0.96 0.96 69 1009.3
20260508205314 76 246 2.0 3.0 0.00 0.96 0.96 70 1009.1
20260508204811 76 185 1.0 3.0 0.00 0.96 0.96 70 1009.3
20260508204308 76 250 0.0 2.0 0.00 0.96 0.96 71 1009.7
20260508203804 75 217 0.0 3.0 0.00 0.96 0.96 72 1009.8
20260508203300 74 90 0.0 0.0 0.00 0.96 0.96 73 1010.1
20260508202755 73 96 0.0 1.0 0.00 0.96 0.96 75 1010.6
20260508202253 73 262 4.0 5.0 0.00 0.96 0.96 74 1010.9
20260508201750 73 151 0.0 3.0 0.00 0.96 0.96 74 1011.3
20260508201247 73 262 0.0 2.0 0.00 0.96 0.96 74 1011.0
20260508200744 73 270 2.0 3.0 0.00 0.96 0.96 73 1011.2
20260508200240 74 283 2.0 6.0 0.00 0.96 0.96 73 1011.1
20260508195736 74 240 1.0 2.0 0.00 0.96 0.96 73 1011.1
20260508195233 75 184 2.0 2.0 0.00 0.96 0.96 73 1010.9
20260508194730 75 246 1.0 2.0 0.00 0.96 0.96 74 1011.0
20260508194226 75 276 0.0 3.0 0.00 0.96 0.96 73 1010.9
20260508193723 74 194 4.0 4.0 0.00 0.96 0.96 73 1010.9
20260508193220 74 198 1.0 5.0 0.00 0.96 0.96 74 1011.1
20260508192716 75 260 2.0 3.0 0.00 0.96 0.96 73 1010.8
20260508192214 75 251 2.0 4.0 0.00 0.96 0.96 74 1011.1
20260508191711 75 270 3.0 5.0 0.00 0.96 0.96 73 1011.1
20260508191208 75 250 4.0 4.0 0.00 0.96 0.96 73 1011.1
20260508190705 75 203 2.0 4.0 0.00 0.96 0.96 73 1011.2
20260508190201 74 192 1.0 5.0 0.00 0.96 0.96 74 1011.3
20260508185658 75 240 1.0 4.0 0.00 0.96 0.96 72 1011.3
20260508185155 75 98 4.0 4.0 0.00 0.96 0.96 73 1011.4
20260508184652 75 258 3.0 6.0 0.00 0.96 0.96 72 1011.3
20260508184150 76 263 1.0 6.0 0.00 0.96 0.96 71 1011.4
20260508183646 77 263 0.0 3.0 0.00 0.96 0.96 69 1011.4
20260508183142 76 180 0.0 2.0 0.00 0.96 0.96 71 1011.6
20260508182638 77 254 2.0 3.0 0.00 0.96 0.96 70 1011.3
20260508182135 77 220 2.0 2.0 0.00 0.96 0.96 71 1011.5
20260508181630 77 276 2.0 2.0 0.00 0.96 0.96 69 1011.7
20260508181128 76 244 3.0 3.0 0.00 0.96 0.96 71 1011.8
20260508180625 75 236 3.0 3.0 0.00 0.96 0.96 72 1011.9
20260508180121 76 248 2.0 4.0 0.00 0.96 0.96 71 1011.9
20260508175618 76 270 1.0 3.0 0.00 0.96 0.96 71 1012.0
20260508175115 76 218 3.0 3.0 0.00 0.96 0.96 72 1012.2
20260508174612 76 270 2.0 2.0 0.00 0.96 0.96 70 1012.0
20260508174109 75 320 0.0 4.0 0.00 0.96 0.96 71 1012.2
20260508173606 75 276 1.0 5.0 0.00 0.96 0.96 70 1012.5
20260508173102 75 190 2.0 2.0 0.00 0.96 0.96 71 1012.5
20260508172600 75 350 0.0 3.0 0.00 0.96 0.96 71 1012.4
20260508172056 75 280 3.0 4.0 0.00 0.96 0.96 68 1012.5
20260508171552 74 221 2.0 3.0 0.00 0.96 0.96 71 1012.4
20260508171049 74 261 0.0 2.0 0.00 0.96 0.96 69 1012.6
20260508170547 74 177 2.0 3.0 0.00 0.96 0.96 70 1012.5
20260508170044 73 270 3.0 3.0 0.00 0.96 0.96 69 1012.9
20260508165541 72 270 0.0 3.0 0.00 0.96 0.96 73 1012.9
20260508165037 72 270 0.0 3.0 0.00 0.96 0.96 73 1013.3
20260508164533 70 270 2.0 4.0 0.00 0.96 0.96 73 1013.1
20260508164031 70 234 0.0 4.0 0.00 0.96 0.96 76 1013.4
20260508163528 70 187 0.0 3.0 0.00 0.96 0.96 76 1013.5
20260508163025 71 270 0.0 2.0 0.00 0.96 0.96 73 1013.9
20260508162521 71 206 1.0 2.0 0.00 0.96 0.96 75 1013.7
20260508162019 70 90 2.0 2.0 0.00 0.96 0.96 79 1013.9
20260508161516 69 90 0.0 2.0 0.00 0.96 0.96 80 1013.8
20260508161013 68 196 2.0 2.0 0.00 0.96 0.96 80 1013.9
20260508160511 68 200 0.0 2.0 0.00 0.96 0.96 81 1014.1
20260508160008 66 165 0.0 3.0 0.00 0.96 0.96 84 1014.0
20260508155505 65 203 0.0 2.0 0.00 0.96 0.96 89 1014.0
20260508155002 64 212 0.0 0.0 0.00 0.96 0.96 93 1014.2
20260508154500 64 180 0.0 2.0 0.00 0.96 0.96 95 1014.2
20260508153955 62 188 0.0 2.0 0.00 0.96 0.96 97 1014.0
20260508153452 63 77 0.0 2.0 0.00 0.96 0.96 98 1014.2
20260508152949 63 194 1.0 1.0 0.00 0.96 0.96 98 1014.2
20260508152446 63 343 0.0 3.0 0.00 0.96 0.96 99 1014.3
20260508151942 63 97 0.0 1.0 0.00 0.96 0.96 99 1014.2
20260508151439 62 270 0.0 0.0 0.00 0.96 0.96 99 1014.5
20260508150935 61 270 0.0 3.0 0.00 0.96 0.96 99 1014.4
20260508150432 62 0 0.0 1.0 0.00 0.96 0.96 99 1014.8
20260508145928 62 180 0.0 0.0 0.00 0.96 0.96 99 1014.8
20260508145425 62 109 0.0 1.0 0.00 0.96 0.96 99 1014.5
20260508144921 62 180 0.0 0.0 0.00 0.96 0.96 99 1014.5
20260508144419 62 240 0.0 2.0 0.00 0.96 0.96 99 1014.5
20260508143917 62 18 0.0 1.0 0.00 0.96 0.96 99 1014.7
20260508143414 63 99 0.0 0.0 0.00 0.96 0.96 99 1014.5
20260508142910 62 99 0.0 0.0 0.00 0.96 0.96 99 1014.8
20260508142408 62 173 0.0 0.0 0.00 0.96 0.96 99 1014.6
20260508141903 62 90 0.0 1.0 0.00 0.96 0.96 99 1014.8
20260508141400 62 98 0.0 0.0 0.00 0.96 0.96 99 1014.9
20260508140858 61 90 0.0 0.0 0.00 0.96 0.96 99 1014.8
20260508140355 61 172 0.0 1.0 0.00 0.96 0.96 99 1014.9
20260508135850 62 106 0.0 1.0 0.00 0.96 0.96 99 1014.9
20260508135347 62 262 0.0 1.0 0.00 0.96 0.96 99 1014.8